Tracking 18980 objects as of 17-Feb-2018
HD Live streaming from Space Station
objects crossing your sky now

FENGYUN 1C DEB

Track FENGYUN 1C DEB now!
10-day predictions


NORAD ID: 30676
Int'l Code: 1999-025AQJ
Perigee: 651.3 km
Apogee: 1,403.3 km
Inclination: 98.3 °
Period: 105.5 minutes
Semi major axis: 7398 km
RCS: 0.0115 m2 (small)
Launch date: May 10, 1999
Source: People's Republic of China (PRC)
Launch site: Taiyaun Space Center, China (TSC)

Note: This is SATELLITE DEBRIS
aabbcc
Your satellite tracking list
Your tracking list is empty




NASA's NSSDC Master Catalog

Two Line Element Set (TLE):
1 30676U 99025AQJ 18047.44563344 +.00000284 +00000-0 +16390-3 0  9996
2 30676 098.2783 225.8950 0508260 140.8747 290.1774 13.64290891549027
Source of the keplerian elements: AFSPC